Weather History for Milwaukee, WI

Change the Weather History Date:

Thursday, November 10, 2011

  Actual Average Record
Temperature  
Mean Temperature 35 °F 42 °F  
Max Temperature 38 °F 49 °F 65 °F (1999)
Min Temperature 31 °F 35 °F 15 °F (1957)
Degree Days  
Heating Degree Days 30 23  
Month to date heating degree days 194 212  
Since 1 July heating degree days 706 797  
Cooling Degree Days 0 0  
Month to date cooling degree days 0 0  
Year to date cooling degree days 793 641  
Moisture  
Dew Point 28 °F    
Average Humidity 73    
Maximum Humidity 82    
Minimum Humidity 64    
Precipitation  
Precipitation 0.01 in 0.09 in 2.22 in (1998)
Month to date precipitation 1.96 0.91  
Year to date precipitation 29.79 30.92  
Snow  
Snow 0.10 in 0.00 in 2.00 in (1898)
Month to date snowfall 0.1 0.2  
Since 1 July snowfall 0.1 0.5  
Since 1 September snowfall 0.1 0.5  
Snow Depth 0.00 in    
Sea Level Pressure  
Sea Level Pressure 29.94 in    
Wind  
Wind Speed 10 mph (West)    
Max Wind Speed 17 mph    
Max Gust Speed 26 mph    
Visibility 9 miles    
Events Snow    
T = Trace of Precipitation, MM = Missing Value Source: NWS Daily Summary

Daily Weather History Graph

Daily Weather History Graph

Search for Another Location

Airport:

Trip Planner

Search our weather history database for the weather conditions in past years. The results will help you decide how hot, cold, wet, or windy it might be!

Date:

Astronomy

Nov. 10, 2011 Rise Set
Actual Time 6:37 AM CST 4:33 PM CST
Civil Twilight 6:07 AM CST 5:03 PM CST
Nautical Twilight 5:33 AM CST 5:37 PM CST
Astronomical Twilight 4:59 AM CST 6:10 PM CST
Moon 4:19 PM CST (11/10) 6:30 AM CST (11/10)
Length of Visible Light 10h 56m
Length of Day
9h 56m
Full, 100% of the Moon is Illuminated
Nov 10
Full
Nov 10
Full
Nov 18
Last Quarter
Nov 25
New
Dec 2
First Quarter

Hourly Weather History & Observations

Time (CST) Temp. Windchill Dew Point Humidity Pressure Visibility Wind Dir Wind Speed Gust Speed Precip Events Conditions
12:52 AM 36.0 °F 28.0 °F 28.0 °F 73% 29.92 in 10.0 mi West 11.5 mph - N/A   Clear
1:52 AM 35.1 °F 29.3 °F 28.0 °F 76% 29.92 in 10.0 mi WSW 6.9 mph - N/A   Clear
2:52 AM 33.8 °F 28.6 °F 26.6 °F 75% 29.89 in 10.0 mi WSW 5.8 mph - N/A   Clear
3:52 AM 33.8 °F 27.0 °F 26.6 °F 75% 29.88 in 10.0 mi WSW 8.1 mph - N/A   Clear
4:52 AM 33.1 °F 26.9 °F 26.1 °F 75% 29.92 in 10.0 mi West 6.9 mph - N/A   Scattered Clouds
5:52 AM 32.0 °F 25.6 °F 24.8 °F 75% 29.90 in 10.0 mi WSW 6.9 mph - N/A   Partly Cloudy
6:52 AM 32.0 °F 24.2 °F 24.8 °F 75% 29.90 in 10.0 mi WSW 9.2 mph - N/A   Mostly Cloudy
7:52 AM 33.1 °F 26.1 °F 26.1 °F 75% 29.94 in 10.0 mi West 8.1 mph - N/A   Mostly Cloudy
8:52 AM 35.1 °F 25.9 °F 27.0 °F 72% 29.94 in 10.0 mi West 13.8 mph 18.4 mph N/A   Mostly Cloudy
9:34 AM 35.6 °F 28.0 °F 28.4 °F 75% 29.92 in 10.0 mi West 10.4 mph 19.6 mph N/A   Mostly Cloudy
9:52 AM 36.0 °F 27.1 °F 28.9 °F 76% 29.94 in 10.0 mi West 13.8 mph 19.6 mph N/A   Overcast
10:52 AM 36.0 °F 29.6 °F 30.9 °F 82% 29.94 in 4.0 mi West 8.1 mph 24.2 mph 0.00 in Snow Light Snow
11:33 AM 35.6 °F 27.1 °F 30.2 °F 81% 29.91 in 1.8 mi West 12.7 mph - 0.00 in Snow Light Snow
11:41 AM 35.6 °F 28.6 °F 30.2 °F 81% 29.91 in 7.0 mi West 9.2 mph - 0.00 in Snow Light Snow
11:44 AM 35.6 °F 26.6 °F 30.2 °F 81% 29.92 in 1.0 mi WNW 13.8 mph 18.4 mph 0.00 in Snow Light Snow
11:52 AM 35.1 °F 27.4 °F 30.9 °F 85% 29.94 in 4.0 mi West 10.4 mph 18.4 mph 0.01 in Snow Light Snow
12:52 PM 37.0 °F 28.9 °F 30.0 °F 76% 29.93 in 10.0 mi WNW 12.7 mph 20.7 mph 0.00 in   Overcast
1:01 PM 37.4 °F 28.2 °F 30.2 °F 75% 29.91 in 10.0 mi WNW 16.1 mph 26.5 mph N/A   Overcast
1:13 PM 37.4 °F 28.9 °F 30.2 °F 75% 29.91 in 10.0 mi West 13.8 mph - N/A   Overcast
1:52 PM 37.0 °F 29.3 °F 30.9 °F 79% 29.94 in 10.0 mi West 11.5 mph 20.7 mph 0.00 in Snow Light Snow
2:52 PM 37.0 °F 28.9 °F 30.9 °F 79% 29.95 in 10.0 mi WNW 12.7 mph 21.9 mph 0.00 in   Overcast
3:52 PM 37.0 °F 28.1 °F 30.0 °F 76% 29.97 in 10.0 mi WNW 15.0 mph 21.9 mph N/A   Overcast
4:11 PM 37.4 °F 29.3 °F 30.2 °F 75% 29.95 in 10.0 mi WNW 12.7 mph 20.7 mph N/A   Mostly Cloudy
4:52 PM 37.0 °F 29.8 °F 28.9 °F 73% 29.99 in 10.0 mi West 10.4 mph - N/A   Mostly Cloudy
5:52 PM 37.0 °F 28.9 °F 28.0 °F 70% 29.99 in 10.0 mi West 12.7 mph - N/A   Mostly Cloudy
6:52 PM 37.0 °F 29.3 °F 27.0 °F 67% 30.00 in 10.0 mi West 11.5 mph - N/A   Overcast
7:52 PM 37.0 °F 31.0 °F 27.0 °F 67% 29.99 in 10.0 mi West 8.1 mph - N/A   Overcast
8:52 PM 37.0 °F 29.8 °F 27.0 °F 67% 30.01 in 10.0 mi West 10.4 mph - N/A   Overcast
9:52 PM 37.0 °F 31.0 °F 28.0 °F 70% 30.00 in 10.0 mi WNW 8.1 mph - N/A   Overcast
10:52 PM 36.0 °F 29.6 °F 27.0 °F 70% 30.00 in 10.0 mi WNW 8.1 mph - N/A   Partly Cloudy
11:52 PM 35.1 °F 31.0 °F 27.0 °F 72% 30.01 in 10.0 mi West 4.6 mph - N/A   Scattered Clouds